Brainerd, MN

9:58 AM CST on February 14, 2016 (GMT -0600)
Brainerd-Crow Wing County Regional

Weather History for KBRD - November, 2011

Change the Weather History Date:

Wednesday, November 2, 2011

  Actual Average Record
Temperature  
Mean Temperature 38 °F -  
Max Temperature 48 °F 45 °F 65 °F (1981)
Min Temperature 27 °F 26 °F 5 °F (1966)
Degree Days  
Heating Degree Days 27    
Moisture  
Dew Point 25 °F    
Average Humidity 54    
Maximum Humidity 75    
Minimum Humidity 41    
Precipitation  
Precipitation 0.00 in - - ()
Sea Level Pressure  
Sea Level Pressure 30.23 in    
Wind  
Wind Speed 8 mph (NNW)    
Max Wind Speed 18 mph    
Max Gust Speed 23 mph    
Visibility 10 miles    
Events      
Averages and records for this station are not official NWS values.
T = Trace of Precipitation, MM = Missing Value Source: NWS Daily Summary

Daily Weather History Graph

Daily Weather History Graph

Search for Another Location

Airport or City:

Trip Planner

Search our weather history database for the weather conditions in past years. The results will help you decide how hot, cold, wet, or windy it might be!

Date:

Astronomy

Nov. 02, 2011 Rise Set
Actual Time 7:59 AM CDT 6:00 PM CDT
Civil Twilight 7:27 AM CDT 6:32 PM CDT
Nautical Twilight 6:51 AM CDT 7:07 PM CDT
Astronomical Twilight 6:16 AM CDT 7:42 PM CDT
Moon 2:18 PM CDT (11/2) No Moon Set
Length of Visible Light 11h 04m
Length of Day
10h 01m
Waxing Crescent, 50% of the Moon is Illuminated
Nov 2
Waxing Crescent
Nov 10
Full
Nov 18
Last Quarter
Nov 25
New
Dec 2
First Quarter

Hourly Weather History & Observations

Time (CDT) Temp. Windchill Dew Point Humidity Pressure Visibility Wind Dir Wind Speed Gust Speed Precip Events Conditions
12:53 AM 43.0 °F 38.8 °F 28.9 °F 58% 30.12 in 10.0 mi NNW 6.9 mph - N/A   Partly Cloudy
1:53 AM 44.1 °F 40.1 °F 28.0 °F 53% 30.14 in 10.0 mi NW 6.9 mph - N/A   Mostly Cloudy
2:53 AM 43.0 °F 38.8 °F 27.0 °F 53% 30.14 in 10.0 mi NNW 6.9 mph - N/A   Partly Cloudy
3:53 AM 43.0 °F 38.2 °F 27.0 °F 53% 30.16 in 10.0 mi NNW 8.1 mph - N/A   Mostly Cloudy
4:53 AM 41.0 °F 36.4 °F 27.0 °F 57% 30.17 in 10.0 mi NNW 6.9 mph - N/A   Scattered Clouds
5:53 AM 42.1 °F 37.1 °F 26.1 °F 53% 30.19 in 10.0 mi NW 8.1 mph - N/A   Clear
6:53 AM 41.0 °F 35.2 °F 26.1 °F 55% 30.21 in 10.0 mi NNW 9.2 mph - N/A   Clear
7:53 AM 39.0 °F 34.0 °F 26.1 °F 60% 30.22 in 10.0 mi NW 6.9 mph - N/A   Clear
8:53 AM 39.0 °F 33.4 °F 26.1 °F 60% 30.24 in 10.0 mi NW 8.1 mph - N/A   Clear
9:53 AM 39.9 °F 34.5 °F 27.0 °F 60% 30.27 in 10.0 mi NW 8.1 mph - N/A   Clear
10:53 AM 41.0 °F 34.7 °F 27.0 °F 57% 30.27 in 10.0 mi NW 10.4 mph - N/A   Clear
11:53 AM 44.1 °F 37.7 °F 27.0 °F 51% 30.26 in 10.0 mi NW 12.7 mph - N/A   Clear
1:53 PM 48.0 °F - 26.1 °F 42% 30.24 in 10.0 mi NNW 12.7 mph - N/A   Clear
2:53 PM 48.0 °F - 25.0 °F 41% 30.22 in 10.0 mi North 18.4 mph 23.0 mph N/A   Clear
3:53 PM 48.0 °F - 25.0 °F 41% 30.24 in 10.0 mi North 12.7 mph 20.7 mph N/A   Clear
4:53 PM 46.9 °F - 26.1 °F 44% 30.26 in 10.0 mi North 11.5 mph - N/A   Clear
5:53 PM 43.0 °F 38.8 °F 24.1 °F 47% 30.27 in 10.0 mi North 6.9 mph - N/A   Clear
6:53 PM 37.9 °F 35.5 °F 24.1 °F 57% 30.28 in 10.0 mi NW 3.5 mph - N/A   Clear
7:53 PM 36.0 °F 33.3 °F 21.9 °F 57% 30.29 in 10.0 mi NW 3.5 mph - N/A   Clear
10:53 PM 28.9 °F - 19.9 °F 69% 30.30 in 10.0 mi Calm Calm - N/A   Clear
11:53 PM 27.0 °F - 19.9 °F 75% 30.29 in 10.0 mi Calm Calm - N/A   Clear